Weather History for KXNA - September, 2012

Change the Weather History Date:

Sunday, September 9, 2012

  Actual Average Record
Temperature  
Mean Temperature 67 °F -  
Max Temperature 82 °F - - ()
Min Temperature 52 °F - - ()
Cooling Degree Days 2    
Growing Degree Days 17 (Base 50)    
Moisture  
Dew Point 51 °F    
Average Humidity 66    
Maximum Humidity 97    
Minimum Humidity 28    
Precipitation  
Precipitation 0.00 in - - ()
Sea Level Pressure  
Sea Level Pressure 30.09 in    
Wind  
Wind Speed 4 mph (NNW)    
Max Wind Speed 15 mph    
Max Gust Speed 21 mph    
Visibility 10 miles    
Events      
T = Trace of Precipitation, MM = Missing Value Source: NWS Daily Summary

Daily Weather History Graph

Daily Weather History Graph

Search for Another Location

Airport or City:

Trip Planner

Search our weather history database for the weather conditions in past years. The results will help you decide how hot, cold, wet, or windy it might be!

Date:

Astronomy

Sep. 09, 2012 Rise Set
Actual Time 6:55 AM CDT 7:32 PM CDT
Civil Twilight 6:29 AM CDT 7:58 PM CDT
Nautical Twilight 5:58 AM CDT 8:29 PM CDT
Astronomical Twilight 5:27 AM CDT 9:00 PM CDT
Moon 12:33 AM CDT (9/9) 3:11 PM CDT (9/9)
Length of Visible Light 13h 29m
Length of Day
12h 37m
Last Quarter, 39% of the Moon is Illuminated
Sep 9
Last Quarter
Sep 15
New
Sep 22
First Quarter
Sep 29
Full
Oct 8
Last Quarter

Hourly Weather History & Observations

Time (CDT) Temp. Heat Index Dew Point Humidity Pressure Visibility Wind Dir Wind Speed Gust Speed Precip Events Conditions
12:53 AM 55.0 °F - 52.0 °F 89% 30.08 in 10.0 mi Calm Calm - N/A   Clear
1:53 AM 53.1 °F - 51.1 °F 93% 30.06 in 10.0 mi Calm Calm - N/A   Clear
2:53 AM 53.1 °F - 52.0 °F 96% 30.06 in 10.0 mi Calm Calm - N/A   Clear
3:53 AM 53.1 °F - 52.0 °F 96% 30.05 in 10.0 mi Calm Calm - N/A   Clear
4:53 AM 52.0 °F - 51.1 °F 97% 30.06 in 10.0 mi South 4.6 mph - N/A   Clear
5:53 AM 52.0 °F - 51.1 °F 97% 30.07 in 10.0 mi Calm Calm - N/A   Clear
6:53 AM 52.0 °F - 51.1 °F 97% 30.09 in 10.0 mi SSW 3.5 mph - N/A   Clear
7:53 AM 54.0 °F - 52.0 °F 93% 30.12 in 10.0 mi Calm Calm - N/A   Clear
8:53 AM 61.0 °F - 55.9 °F 83% 30.12 in 10.0 mi SSW 3.5 mph - N/A   Clear
9:53 AM 69.1 °F - 53.1 °F 57% 30.12 in 10.0 mi West 8.1 mph - N/A   Clear
10:53 AM 73.0 °F - 48.9 °F 42% 30.13 in 10.0 mi West 12.7 mph - N/A   Clear
11:53 AM 75.9 °F - 52.0 °F 43% 30.12 in 10.0 mi West 11.5 mph - N/A   Clear
12:53 PM 79.0 °F - 50.0 °F 36% 30.10 in 10.0 mi West 10.4 mph - N/A   Clear
1:53 PM 80.1 °F - 52.0 °F 38% 30.09 in 10.0 mi NNW 9.2 mph - N/A   Clear
2:53 PM 82.0 °F 81.2 °F 53.1 °F 37% 30.07 in 10.0 mi North 15.0 mph 20.7 mph N/A   Clear
4:53 PM 81.0 °F - 45.0 °F 28% 30.06 in 10.0 mi North 10.4 mph - N/A   Clear
5:53 PM 79.0 °F - 46.0 °F 31% 30.06 in 10.0 mi North 10.4 mph - N/A   Clear
6:53 PM 75.9 °F - 46.9 °F 36% 30.08 in 10.0 mi NNE 6.9 mph - N/A   Clear
7:53 PM 66.9 °F - 50.0 °F 54% 30.08 in 10.0 mi North 5.8 mph - N/A   Clear
8:53 PM 63.0 °F - 52.0 °F 67% 30.10 in 10.0 mi North 4.6 mph - N/A   Clear
9:53 PM 63.0 °F - 52.0 °F 67% 30.11 in 10.0 mi North 4.6 mph - N/A   Clear
10:53 PM 61.0 °F - 52.0 °F 72% 30.11 in 10.0 mi North 4.6 mph - N/A   Clear
11:53 PM 60.1 °F - 52.0 °F 75% 30.11 in 10.0 mi NNE 3.5 mph - N/A   Clear